Regional Weather Roundup
Issued by NWS

Home | Current Version | Previous Version | Graphics & Text | Print | Product List | Glossary On
Versions: 1 2 3 4 5 6 7 8 9 10 11 12 13 14 15 16 17 18 19 20 21 22 23 24 25 26 27 28 29 30 31 32 33 34 35 36 37 38 39 40 41 42 43 44 45 46 47 48 49 50
000
ASUS43 KLSX 201407
RWRMO

WEATHER SUMMARY FOR MISSOURI
NATIONAL WEATHER SERVICE SPRINGFIELD MO
800 AM CST SAT DEC 20 2014

NOTE: "FAIR" INDICATES FEW OR NO CLOUDS BELOW 12,000 FEET WITH NO
       SIGNIFICANT WEATHER AND/OR OBSTRUCTIONS TO VISIBILITY.
       CURRENT SKY AND/OR WEATHER CONDITIONS ARE NOT AVAILABLE FOR
       CHILLICOTHE AND FARMINGTON.

MOZ001>031-035>038-043-044-053-054-201500-
...NORTHERN AND WESTERN MISSOURI...

CITY           SKY/WX    TMP DP  RH WIND       PRES   REMARKS
KANSAS CTY INT CLOUDY    34  31  88 S12       30.16F WCI  25
KANSAS C DTWN  CLOUDY    35  30  82 S13       30.19S WCI  26
LEE`S SUMMIT   CLOUDY    34  30  85 SW9       30.20S WCI  27
ST JOSEPH      CLEAR     31  29  92 S7        30.16R WCI  24
CHILLICOTHE      N/A     34  33  96 CALM      30.21F
KIRKSVILLE     FOG       33  33 100 S7        30.20S VSB<1/4 WCI  27

$$
MOZ066>068-077>081-088>096-101>105-201500-
...SOUTHWEST MISSOURI...

CITY           SKY/WX    TMP DP  RH WIND       PRES   REMARKS
SPRINGFIELD    FOG       38  37  97 S6        30.22R VSB 1/2
JOPLIN         CLOUDY    36  35  96 W3        30.25R FOG

$$
MOZ032>034-039>042-045>050-055>058-069>072-201500-
...CENTRAL MISSOURI...

CITY           SKY/WX    TMP DP  RH WIND       PRES   REMARKS
COLUMBIA       CLOUDY    36  35  96 S7        30.23R FOG
JEFFERSON CITY CLOUDY    37  35  92 E3        30.25R FOG
ROLLA          CLOUDY    35  33  92 S5        30.22R FOG
SEDALIA        CLOUDY    38  36  92 SW3       30.22S
WHITEMAN AFB   CLOUDY    36  33  90 SW8       30.22R WCI  30
WARRENSBURG    CLOUDY    34  34 100 S8        30.22S FOG     WCI  27
OSAGE BEACH    CLOUDY    37  34  87 CALM      30.23S

$$
MOZ051-052-059>065-201500-
...EAST CENTRAL MISSOURI...

CITY           SKY/WX    TMP DP  RH WIND       PRES   REMARKS
ST LOUIS INTL  CLOUDY    37  27  67 S6        30.27R
SPIRIT OF STL  CLOUDY    35  30  82 CALM      30.27R
ST CHARLES     CLOUDY    34  31  88 SE5       30.27R FOG     WCI  30

$$
MOZ072>076-082>087-097>100-106>115-201500-
...SOUTH CENTRAL AND SOUTHEAST MISSOURI...

CITY           SKY/WX    TMP DP  RH WIND       PRES   REMARKS
CAPE GIRARDEAU CLOUDY    36  31  82 CALM      30.30R
FARMINGTON     CLOUDY    34  32  93 CALM      30.27R
POPLAR BLUFF   CLOUDY    36  31  82 CALM      30.28S
WEST PLAINS    CLOUDY    34  31  88 CALM      30.24S FOG

$$


USA.gov is the U.S. government's official web portal to all federal, state and local government web resources and services.